Home   Weather   Milton Keynes   Past weeks

Flag for United Kingdom Past Weather in Milton Keynes, England, United Kingdom — Yesterday and Last 2 Weeks

Now
59 °F

Partly sunny.


Feels Like: 57 °F
Forecast: 53 / 64 °F
Wind: 10 mph from Southwest

Location: Luton Airport

Current Time: Jul 26, 2017 at 7:51:58 am

Latest Report: Jul 26, 2017 at 7:20 am


Visibility: N/A

Pressure: 29.80 "Hg

Humidity: 100%

Dew Point: 59 °F

Location of Milton KeynesLocation

Past Weather in Milton Keynes — Graph

°F

Milton Keynes Temperature Yesterday

Maximum temperature yesterday: 70 °F (at 5:20 pm)
Minimum temperature yesterday: 54 °F (at 3:50 am)
Average temperature yesterday: 61 °F

High & Low Weather Summary for the Past Weeks

 TemperatureHumidityPressure
High79 °F (Jul 18, 3:20 pm)100% (Jul 11, 3:20 pm)30.27 "Hg (Jul 11, 3:20 pm)
Low52 °F (Jul 12, 11:20 pm)34% (Jul 18, 3:20 pm)29.65 "Hg (Jul 19, 11:20 am)
Average61 °F80%29.96 "Hg
* Reported Jul 11 6:20 am — Jul 26 6:50 am, Milton Keynes. Weather by CustomWeather, © 2017

Note: Actual official high and low records may vary slightly from our data, if they occured in-between our weather recording intervals... More about our weather records

Advertising

Milton Keynes Weather History for the Previous 24 Hours

Scroll right to see more
 ConditionsComfort  
Time TempWeatherWind HumidityBarometerVisibility
6:50 am
Wed, Jul 26
57 °FPartly sunny.7 mph100%29.80 "Hg4 mi
6:20 am57 °FFog.9 mph100%29.80 "Hg1 mi
5:50 am57 °FFog.7 mph100%29.80 "Hg1 mi
5:20 am57 °FFog.6 mph100%29.80 "Hg2 mi
4:50 am57 °FFog.5 mph100%29.80 "Hg2 mi
4:20 am57 °FCool.6 mph100%29.83 "Hg4 mi
3:50 am57 °FCool.5 mph94%29.83 "HgN/A
3:20 am57 °FCool.5 mph94%29.83 "HgN/A
2:50 am57 °FCool.6 mph94%29.86 "HgN/A
2:20 am57 °FCool.7 mph94%29.86 "HgN/A
1:50 am57 °FCool.6 mph94%29.86 "HgN/A
1:20 am59 °FLight rain. Passing clouds.5 mph88%29.89 "HgN/A
12:50 am59 °FLight rain. Mostly cloudy.5 mph88%29.89 "HgN/A
12:20 am59 °FPassing clouds.7 mph88%29.89 "HgN/A
11:50 pm
Tue, Jul 25
59 °FPassing clouds.7 mph88%29.92 "HgN/A
11:20 pm59 °FPassing clouds.7 mph88%29.92 "HgN/A
10:50 pm61 °FPassing clouds.5 mph83%29.92 "HgN/A
10:20 pm63 °FPassing clouds.5 mph77%29.92 "HgN/A
9:50 pm61 °FPassing clouds.5 mph83%29.92 "HgN/A
9:20 pm63 °FMild.3 mph77%29.92 "HgN/A
8:50 pm63 °FMild.3 mph77%29.92 "HgN/A
8:20 pm64 °FMild.3 mph73%29.92 "HgN/A
7:50 pm68 °FMild.2 mph60%29.92 "HgN/A
7:20 pm68 °FMild.3 mph64%29.92 "HgN/A
6:50 pm70 °FMild.5 mph57%29.95 "HgN/A
6:20 pm70 °FPassing clouds.6 mph60%29.95 "HgN/A
5:50 pm70 °FScattered clouds.8 mph60%29.95 "HgN/A
5:20 pm70 °FPartly sunny.7 mph60%29.98 "HgN/A
4:50 pm68 °FPartly sunny.7 mph64%29.98 "HgN/A
4:20 pm68 °FPartly sunny.6 mph64%29.98 "HgN/A
3:50 pm68 °FPartly sunny.8 mph60%29.98 "HgN/A
3:20 pm66 °FPartly sunny.7 mph64%29.98 "HgN/A
2:50 pm66 °FOvercast.8 mph68%29.98 "HgN/A
2:20 pm64 °FOvercast.10 mph73%30.01 "HgN/A
1:50 pm64 °FOvercast.9 mph68%30.01 "HgN/A
1:20 pm64 °FOvercast.10 mph68%30.01 "HgN/A
12:50 pm63 °FOvercast.10 mph73%30.01 "HgN/A
12:20 pm63 °FOvercast.10 mph77%30.01 "HgN/A
11:50 am63 °FOvercast.12 mph73%30.01 "HgN/A
11:20 am63 °FOvercast.10 mph77%30.01 "HgN/A
10:50 am61 °FOvercast.8 mph83%30.04 "HgN/A
10:20 am61 °FPartly sunny.7 mph83%30.04 "HgN/A
9:50 am59 °FLow clouds.7 mph88%30.04 "HgN/A
9:20 am57 °FLow clouds.9 mph94%30.04 "HgN/A
8:50 am57 °FLow clouds.8 mph94%30.04 "HgN/A
8:20 am55 °FMostly cloudy.10 mph100%30.04 "HgN/A
7:50 am55 °FLow clouds.10 mph94%30.04 "HgN/A
7:20 am55 °FLow clouds.10 mph100%30.04 "HgN/A
Weather by CustomWeather, © 2017

See weather overviewHow to use our weather pages